Tracking 28125 objects as of 3-Oct-2023
HD Live streaming from Space Station
objects crossing your sky now

STARLINK-6045

Track STARLINK-6045 now!
10-day predictions
STARLINK-6045 is classified as:


NORAD ID: 56462
Int'l Code: 2023-064Q
Perigee: 363.7 km
Apogee: 368.8 km
Inclination: 70.0 °
Period: 91.7 minutes
Semi major axis: 6737 km
RCS: Unknown
Launch date: May 10, 2023
Source: United States (US)
Launch site: AIR FORCE WESTERN TEST RANGE (AFWTR)
Your satellite tracking list
Your tracking list is empty




NASA's NSSDC Master Catalog

Two Line Element Set (TLE):
1 56462U 23064Q   23276.15491423  .00000758  00000-0  80700-5 0  9997
2 56462  70.0001 195.8236 0003829 269.5542  90.5215 15.69926772 22866
Source of the keplerian elements: AFSPC